Location: Coed Ely
(51.5661°N, 3.4150°W)
Time: 23:46:25
(UTC+00:00)

ATLAS 5 CENTAUR R/B - Pass Details

Date: 28 January 2021
Orbit: 511 x 1147 km, 63.3° (Epoch: 16 February)

Event Time Altitude Azimuth Distance (km) Brightness Sun altitude
Rises 17:50:09 0° 270° (W) 2,767 6.5 -8.5°
Reaches altitude 10° 17:52:32 10° 284° (WNW) 1,942 5.1 -8.9°
Maximum altitude 17:56:15 26° 342° (NNW) 1,290 3.2 -9.4°
Drops below altitude 10° 18:00:29 10° 39° (NE) 2,241 3.9 -10.0°
Enters shadow 18:00:55 - 42° (NE) 2,388 4.0 -10.1°
